• In Hungary
  • List of Countries
  • For 7 days
  • Water Temperature
  • Satellite Maps
  • Weather Map
  • News
  • Weather Widgets
  • user-avatar
    Login

    Hourly Weather Mariestad

    Today, 21 October, Sunday

    Time Temperature Precipitation Wind Pressure Humidity
    00:00 +5°C° 0 mm 3 mps 762 mmHg 90%
    01:00 +5°C° 0 mm 3 mps 761 mmHg 91%
    02:00 +5°C° 0 mm 4 mps 761 mmHg 91%
    03:00 +6°C° 0 mm 4 mps 761 mmHg 90%
    04:00 +6°C° 0 mm 5 mps 760 mmHg 90%
    05:00 +7°C° 0 mm 5 mps 760 mmHg 90%
    06:00 +7°C° 0 mm 5 mps 760 mmHg 90%
    07:00 +7°C° 0 mm 5 mps 760 mmHg 89%
    08:00 +8°C° 0 mm 6 mps 760 mmHg 88%
    09:00 +9°C° 0 mm 6 mps 759 mmHg 87%
    10:00 +10°C° 0 mm 7 mps 759 mmHg 87%
    11:00 +10°C° 0 mm 7 mps 759 mmHg 86%
    12:00 +11°C° 0 mm 7 mps 758 mmHg 85%
    13:00 +11°C° 0 mm 7 mps 758 mmHg 85%
    14:00 +12°C° 0 mm 7 mps 758 mmHg 85%
    15:00 +12°C° 0 mm 7 mps 757 mmHg 85%
    16:00 +12°C° 0 mm 7 mps 756 mmHg 85%
    17:00 +12°C° 0 mm 7 mps 756 mmHg 85%
    18:00 +12°C° 0 mm 7 mps 755 mmHg 86%
    19:00 +14°C° 0 mm 7 mps 755 mmHg 86%
    20:00 +13°C° 0.1 mm 8 mps 754 mmHg 86%
    21:00 +13°C° 0.1 mm 8 mps 754 mmHg 85%
    22:00 +13°C° 0.1 mm 8 mps 754 mmHg 85%
    23:00 +12°C° 0.1 mm 8 mps 754 mmHg 81%

    Tomorrow, 22 October, Monday

    Time Temperature Precipitation Wind Pressure Humidity
    00:00 +11°C° 0.1 mm 8 mps 754 mmHg 76%
    01:00 +11°C° 0.1 mm 8 mps 754 mmHg 72%
    02:00 +10°C° 0 mm 8 mps 755 mmHg 69%
    03:00 +9°C° 0 mm 7 mps 755 mmHg 66%
    04:00 +8°C° 0 mm 7 mps 756 mmHg 64%
    05:00 +6°C° 0 mm 7 mps 756 mmHg 62%
    06:00 +6°C° 0 mm 7 mps 757 mmHg 61%
    07:00 +6°C° 0 mm 7 mps 757 mmHg 60%
    08:00 +6°C° 0 mm 8 mps 757 mmHg 56%
    09:00 +7°C° 0 mm 8 mps 758 mmHg 52%
    10:00 +7°C° 0 mm 8 mps 758 mmHg 48%
    11:00 +9°C° 0 mm 8 mps 758 mmHg 47%
    12:00 +9°C° 0 mm 8 mps 758 mmHg 45%
    13:00 +9°C° 0 mm 8 mps 758 mmHg 44%
    14:00 +9°C° 0 mm 7 mps 758 mmHg 46%
    15:00 +8°C° 0 mm 7 mps 758 mmHg 48%
    16:00 +8°C° 0 mm 6 mps 758 mmHg 50%
    17:00 +7°C° 0 mm 6 mps 757 mmHg 52%
    18:00 +7°C° 0 mm 6 mps 757 mmHg 54%
    19:00 +5°C° 0 mm 7 mps 757 mmHg 56%
    20:00 +5°C° 0 mm 7 mps 756 mmHg 60%
    21:00 +5°C° 0 mm 7 mps 756 mmHg 63%
    22:00 +5°C° 0 mm 7 mps 755 mmHg 66%
    23:00 +5°C° 0.7 mm 7 mps 753 mmHg 71%

    Day after tomorrow, 23 October, Tuesday

    Time Temperature Precipitation Wind Pressure Humidity
    00:00 +6°C° 0.7 mm 8 mps 752 mmHg 77%
    01:00 +6°C° 0.7 mm 8 mps 750 mmHg 82%
    02:00 +6°C° 1.5 mm 8 mps 748 mmHg 83%
    03:00 +7°C° 1.5 mm 8 mps 746 mmHg 84%
    04:00 +7°C° 1.5 mm 8 mps 744 mmHg 85%
    05:00 +7°C° 0.1 mm 8 mps 743 mmHg 83%
    06:00 +7°C° 0.1 mm 8 mps 742 mmHg 81%
    07:00 +7°C° 0.1 mm 8 mps 742 mmHg 79%
    08:00 +9°C° 0.1 mm 7 mps 741 mmHg 77%
    09:00 +9°C° 0.1 mm 7 mps 741 mmHg 75%
    10:00 +9°C° 0.1 mm 7 mps 740 mmHg 72%
    11:00 +10°C° 0.2 mm 7 mps 740 mmHg 69%
    12:00 +10°C° 0.2 mm 6 mps 740 mmHg 66%
    13:00 +10°C° 0.2 mm 6 mps 739 mmHg 62%
    14:00 +10°C° 0.2 mm 6 mps 739 mmHg 63%
    15:00 +9°C° 0.2 mm 6 mps 740 mmHg 63%
    16:00 +8°C° 0.2 mm 6 mps 740 mmHg 63%
    17:00 +7°C° 0.2 mm 6 mps 741 mmHg 61%
    18:00 +5°C° 0.2 mm 7 mps 742 mmHg 59%
    19:00 +4°C° 0.2 mm 8 mps 743 mmHg 57%
    20:00 +4°C° 0 mm 8 mps 743 mmHg 56%
    21:00 +2°C° 0 mm 8 mps 744 mmHg 56%
    22:00 +1°C° 0 mm 8 mps 745 mmHg 55%
    23:00 +1°C° 0 mm 9 mps 746 mmHg 56%

    24 October, Wednesday

    Time Temperature Precipitation Wind Pressure Humidity
    00:00 +1°C° 0 mm 9 mps 746 mmHg 56%
    01:00 +1°C° 0 mm 9 mps 747 mmHg 56%
    02:00 +1°C° 0 mm 9 mps 747 mmHg 56%
    03:00 +1°C° 0 mm 8 mps 748 mmHg 56%
    04:00 +1°C° 0 mm 8 mps 749 mmHg 56%
    05:00 +1°C° 0 mm 8 mps 750 mmHg 56%
    06:00 +1°C° 0 mm 8 mps 750 mmHg 57%
    07:00 +2°C° 0 mm 7 mps 751 mmHg 57%
    08:00 +3°C° 0 mm 7 mps 751 mmHg 54%
    09:00 +3°C° 0 mm 7 mps 752 mmHg 51%
    10:00 +4°C° 0 mm 7 mps 752 mmHg 48%
    11:00 +4°C° 0 mm 7 mps 752 mmHg 47%
    12:00 +5°C° 0 mm 6 mps 753 mmHg 45%
    13:00 +5°C° 0 mm 6 mps 753 mmHg 44%
    14:00 +6°C° 0 mm 5 mps 753 mmHg 46%
    15:00 +5°C° 0 mm 4 mps 753 mmHg 48%
    16:00 +5°C° 0 mm 4 mps 753 mmHg 50%
    17:00 +4°C° 0 mm 3 mps 752 mmHg 54%
    18:00 +3°C° 0 mm 3 mps 752 mmHg 57%
    19:00 +3°C° 0 mm 2 mps 752 mmHg 60%
    20:00 +3°C° 0 mm 3 mps 751 mmHg 60%
    21:00 +3°C° 0 mm 3 mps 750 mmHg 60%
    22:00 +3°C° 0 mm 3 mps 749 mmHg 61%
    23:00 +4°C° 0 mm 3 mps 749 mmHg 68%

    25 October, Thursday

    Time Temperature Precipitation Wind Pressure Humidity
    00:00 +4°C° 0 mm 4 mps 748 mmHg 76%
    01:00 +4°C° 0 mm 4 mps 747 mmHg 84%
    02:00 +5°C° 0 mm 4 mps 747 mmHg 81%
    03:00 +6°C° 0 mm 5 mps 746 mmHg 78%
    04:00 +5°C° 0 mm 6 mps 746 mmHg 75%
    05:00 +5°C° 0 mm 6 mps 746 mmHg 74%
    06:00 +5°C° 0 mm 6 mps 746 mmHg 72%
    07:00 +5°C° 0 mm 6 mps 746 mmHg 71%
    08:00 +7°C° 0 mm 6 mps 746 mmHg 65%
    09:00 +8°C° 0 mm 6 mps 746 mmHg 58%
    10:00 +9°C° 0 mm 7 mps 746 mmHg 52%
    11:00 +9°C° 0 mm 6 mps 746 mmHg 50%
    12:00 +10°C° 0 mm 6 mps 746 mmHg 48%
    13:00 +10°C° 0 mm 6 mps 746 mmHg 46%
    14:00 +9°C° 0 mm 5 mps 746 mmHg 49%
    15:00 +8°C° 0 mm 5 mps 746 mmHg 53%
    16:00 +8°C° 0 mm 4 mps 746 mmHg 56%
    17:00 +8°C° 0 mm 3 mps 747 mmHg 61%
    18:00 +7°C° 0 mm 3 mps 747 mmHg 65%
    19:00 +6°C° 0 mm 2 mps 747 mmHg 70%
    20:00 +5°C° 0 mm 2 mps 747 mmHg 72%
    21:00 +5°C° 0 mm 2 mps 747 mmHg 74%
    22:00 +6°C° 0 mm 1 mps 747 mmHg 76%
    23:00 +5°C° 0 mm 1 mps 747 mmHg 77%

    26 October, Friday

    Time Temperature Precipitation Wind Pressure Humidity
    00:00 +4°C° 0 mm 2 mps 746 mmHg 79%
    01:00 +4°C° 0 mm 2 mps 746 mmHg 80%
    02:00 +4°C° 0 mm 2 mps 746 mmHg 81%
    03:00 +4°C° 0 mm 2 mps 746 mmHg 83%
    04:00 +4°C° 0 mm 2 mps 745 mmHg 84%
    05:00 +3°C° 0 mm 3 mps 745 mmHg 85%
    06:00 +4°C° 0 mm 3 mps 744 mmHg 85%
    07:00 +4°C° 0 mm 3 mps 744 mmHg 86%
    08:00 +5°C° 0.1 mm 3 mps 743 mmHg 84%
    09:00 +6°C° 0.1 mm 2 mps 743 mmHg 83%
    10:00 +7°C° 0.1 mm 2 mps 742 mmHg 81%
    11:00 +7°C° 1.3 mm 2 mps 742 mmHg 84%
    12:00 +7°C° 1.3 mm 2 mps 741 mmHg 87%
    13:00 +6°C° 1.3 mm 2 mps 740 mmHg 90%
    14:00 +6°C° 1.3 mm 2 mps 740 mmHg 91%
    15:00 +6°C° 1.3 mm 2 mps 739 mmHg 91%
    16:00 +5°C° 1.3 mm 3 mps 739 mmHg 92%
    17:00 +4°C° 0.1 mm 3 mps 739 mmHg 91%
    18:00 +4°C° 0.1 mm 3 mps 739 mmHg 91%
    19:00 +3°C° 0.1 mm 3 mps 739 mmHg 90%
    20:00 +3°C° 0.1 mm 3 mps 739 mmHg 90%
    21:00 +3°C° 0.1 mm 3 mps 739 mmHg 90%
    22:00 +3°C° 0.1 mm 3 mps 740 mmHg 90%
    23:00 +3°C° 0.1 mm 3 mps 740 mmHg 90%
    Show more